Johnstown, PA

9:37 PM EST on February 07, 2016 (GMT -0500)
Johnstown-Cambria County

Weather History for KJST - September, 2013

Change the Weather History Date:

Tuesday, September 17, 2013

  Actual Average Record
Temperature  
Mean Temperature 50 °F 59 °F  
Max Temperature 61 °F 68 °F 93 °F (1991)
Min Temperature 39 °F 51 °F 36 °F (1986)
Degree Days  
Heating Degree Days 15 6  
Month to date heating degree days 98 66  
Since 1 July heating degree days 169 108  
Cooling Degree Days 0 0  
Month to date cooling degree days 31 22  
Year to date cooling degree days 377 382  
Moisture  
Dew Point 40 °F    
Average Humidity 70    
Maximum Humidity 100    
Minimum Humidity 39    
Precipitation  
Precipitation 0.00 in 0.11 in 2.14 in (2004)
Month to date precipitation 3.05 1.93  
Year to date precipitation 28.00 26.22  
Sea Level Pressure  
Sea Level Pressure 30.36 in    
Wind  
Wind Speed 4 mph (ENE)    
Max Wind Speed 12 mph    
Max Gust Speed 24 mph    
Visibility 8 miles    
Events Fog    
T = Trace of Precipitation, MM = Missing Value Source: NWS Daily Summary

Daily Weather History Graph

Daily Weather History Graph

Search for Another Location

Airport or City:

Trip Planner

Search our weather history database for the weather conditions in past years. The results will help you decide how hot, cold, wet, or windy it might be!

Date:

Astronomy

Sep. 17, 2013 Rise Set
Actual Time 6:58 AM EDT 7:20 PM EDT
Civil Twilight 6:31 AM EDT 7:47 PM EDT
Nautical Twilight 5:58 AM EDT 8:19 PM EDT
Astronomical Twilight 5:26 AM EDT 8:52 PM EDT
Moon 6:06 PM EDT (9/17) 4:50 AM EDT (9/17)
Length of Visible Light 13h 16m
Length of Day
12h 22m
Waxing Gibbous, 96% of the Moon is Illuminated
Sep 17
Waxing Gibbous
Sep 19
Full
Sep 26
Last Quarter
Oct 4
New
Oct 11
First Quarter

Hourly Weather History & Observations

Time (EDT) Temp. Windchill Dew Point Humidity Pressure Visibility Wind Dir Wind Speed Gust Speed Precip Events Conditions
12:19 AM 48.2 °F - 46.4 °F 93% 30.31 in 10.0 mi ENE 5.8 mph - N/A   Mostly Cloudy
12:54 AM 48.0 °F - 45.0 °F 89% 30.32 in 10.0 mi NE 5.8 mph - N/A   Clear
1:54 AM 46.0 °F 43.1 °F 45.0 °F 96% 30.34 in 10.0 mi ENE 5.8 mph - N/A   Partly Cloudy
2:54 AM 45.0 °F 43.5 °F 44.1 °F 97% 30.34 in 10.0 mi ENE 3.5 mph - N/A   Clear
3:48 AM 44.6 °F 43.1 °F 42.8 °F 93% 30.33 in 2.5 mi ENE 3.5 mph - N/A   Scattered Clouds
3:49 AM 44.6 °F 43.1 °F 42.8 °F 93% 30.33 in 1.5 mi ENE 3.5 mph - N/A   Scattered Clouds
3:51 AM 44.6 °F 43.1 °F 42.8 °F 93% 30.33 in 0.8 mi ENE 3.5 mph - N/A   Mist
3:54 AM 44.1 °F 42.5 °F 43.0 °F 96% 30.34 in 0.5 mi ENE 3.5 mph - N/A Fog Fog
4:14 AM 42.8 °F 40.1 °F 42.8 °F 100% 30.33 in 2.0 mi ENE 4.6 mph - N/A   Mostly Cloudy
4:22 AM 42.8 °F 40.1 °F 42.8 °F 100% 30.33 in 10.0 mi ENE 4.6 mph - N/A   Mostly Cloudy
4:30 AM 42.8 °F 39.3 °F 42.8 °F 100% 30.34 in 10.0 mi ENE 5.8 mph - N/A   Scattered Clouds
4:46 AM 42.8 °F 40.1 °F 42.8 °F 100% 30.34 in 1.8 mi ENE 4.6 mph - N/A   Scattered Clouds
4:49 AM 42.8 °F 39.3 °F 42.8 °F 100% 30.34 in 0.8 mi ENE 5.8 mph - N/A   Mist
4:54 AM 42.1 °F 39.2 °F 41.0 °F 96% 30.35 in 0.5 mi ENE 4.6 mph - N/A Fog Fog
5:02 AM 42.8 °F 39.3 °F 41.0 °F 93% 30.34 in 2.5 mi ENE 5.8 mph - N/A   Mostly Cloudy
5:09 AM 42.8 °F 40.1 °F 41.0 °F 93% 30.34 in 10.0 mi ENE 4.6 mph - N/A   Mostly Cloudy
5:16 AM 41.0 °F 38.0 °F 41.0 °F 100% 30.35 in 10.0 mi ENE 4.6 mph - N/A   Scattered Clouds
5:23 AM 41.0 °F 36.4 °F 41.0 °F 100% 30.35 in 1.8 mi ENE 6.9 mph - N/A   Scattered Clouds
5:26 AM 41.0 °F 38.0 °F 41.0 °F 100% 30.35 in 0.8 mi ENE 4.6 mph - N/A   Mist
5:44 AM 41.0 °F 36.4 °F 39.2 °F 93% 30.36 in 2.5 mi NE 6.9 mph - N/A   Overcast
5:48 AM 41.0 °F 37.1 °F 39.2 °F 93% 30.36 in 9.0 mi ENE 5.8 mph - N/A   Overcast
5:54 AM 39.9 °F 36.7 °F 39.9 °F 100% 30.38 in 10.0 mi East 4.6 mph - N/A   Overcast
6:01 AM 39.2 °F 35.0 °F 39.2 °F 100% 30.37 in 9.0 mi ENE 5.8 mph - N/A   Overcast
6:25 AM 39.2 °F 35.0 °F 39.2 °F 100% 30.37 in 10.0 mi ENE 5.8 mph - N/A   Overcast
6:54 AM 39.0 °F 33.4 °F 39.0 °F 100% 30.40 in 10.0 mi ENE 8.1 mph - N/A   Overcast
7:23 AM 39.2 °F 35.9 °F 39.2 °F 100% 30.39 in 10.0 mi East 4.6 mph - N/A   Overcast
7:54 AM 39.9 °F 37.8 °F 37.9 °F 93% 30.42 in 10.0 mi East 3.5 mph - N/A   Scattered Clouds
8:33 AM 41.0 °F 39.0 °F 37.4 °F 87% 30.40 in 10.0 mi ESE 3.5 mph - N/A   Mostly Cloudy
8:54 AM 43.0 °F 39.5 °F 37.9 °F 82% 30.43 in 10.0 mi Variable 5.8 mph - N/A   Mostly Cloudy
9:03 AM 42.8 °F 41.1 °F 37.4 °F 81% 30.41 in 10.0 mi ESE 3.5 mph - N/A   Scattered Clouds
9:54 AM 46.9 °F - 39.0 °F 74% 30.44 in 10.0 mi Calm Calm - N/A   Clear
10:54 AM 51.1 °F - 37.0 °F 59% 30.43 in 10.0 mi East 4.6 mph - N/A   Clear
11:54 AM 55.0 °F - 37.9 °F 53% 30.42 in 10.0 mi Variable 4.6 mph - N/A   Clear
12:54 PM 55.9 °F - 36.0 °F 47% 30.41 in 10.0 mi Variable 6.9 mph - N/A   Clear
1:54 PM 59.0 °F - 37.9 °F 46% 30.39 in 10.0 mi ESE 5.8 mph - N/A   Clear
2:54 PM 59.0 °F - 35.1 °F 41% 30.38 in 10.0 mi Variable 4.6 mph - N/A   Clear
3:54 PM 60.1 °F - 35.1 °F 39% 30.36 in 10.0 mi Calm Calm - N/A   Clear
4:54 PM 60.1 °F - 36.0 °F 41% 30.34 in 10.0 mi Calm Calm - N/A   Clear
5:54 PM 59.0 °F - 37.9 °F 46% 30.35 in 10.0 mi SE 5.8 mph - N/A   Clear
6:54 PM 55.0 °F - 39.9 °F 57% 30.35 in 10.0 mi Calm Calm - N/A   Clear
7:54 PM 52.0 °F - 37.9 °F 59% 30.35 in 10.0 mi Calm Calm - N/A   Clear
8:54 PM 48.9 °F - 37.0 °F 64% 30.36 in 10.0 mi ESE 3.5 mph - N/A   Clear
9:54 PM 48.9 °F - 34.0 °F 56% 30.36 in 10.0 mi SE 3.5 mph - N/A   Clear
10:54 PM 46.9 °F - 34.0 °F 61% 30.35 in 10.0 mi SSE 3.5 mph - N/A   Clear
11:54 PM 46.9 °F - 35.1 °F 63% 30.34 in 10.0 mi South 3.5 mph - N/A   Clear